AO-07 1 07530U 74089B 26132.87533286 -.00000029 00000-0 10796-3 0 9997 2 07530 101.9917 145.7521 0012140 196.7820 238.0696 12.53697474356096 UO-11 1 14781U 84021B 26132.84792309 .00000849 00000-0 92196-4 0 9994 2 14781 97.8037 98.8254 0006342 309.0891 50.9763 14.90697322251863 AO-27 1 22825U 93061C 26132.47840235 .00000046 00000-0 34367-4 0 9992 2 22825 98.6892 199.9017 0008025 197.5973 162.4932 14.30932168701894 FO-29 1 24278U 96046B 26132.82172513 -.00000025 00000-0 10649-4 0 9993 2 24278 98.5279 346.5311 0349707 188.0537 171.4897 13.53272310468383 GO-32 1 25397U 98043D 26132.87255970 .00000029 00000-0 32726-4 0 9992 2 25397 99.0064 124.7427 0001011 13.1949 346.9255 14.24421265446305 ISS 1 25544U 98067A 26132.84394688 .00005010 00000-0 98361-4 0 9991 2 25544 51.6312 115.0561 0007510 52.2723 307.8945 15.49198654566277 NO-44 1 26931U 01043C 26132.53798604 .00000068 00000-0 56189-4 0 9992 2 26931 67.0512 336.4774 0006284 263.6947 96.3440 14.31941857285346 SO-50 1 27607U 02058C 26132.34773994 .00000635 00000-0 92778-4 0 9998 2 27607 64.5523 239.8634 0075634 269.0204 90.2235 14.82969432259142 CO-55 1 27844U 03031E 26132.77239405 .00000191 00000-0 10155-3 0 9999 2 27844 98.6747 141.7761 0008348 291.1479 68.8807 14.24313071186638 RS-22 1 27939U 03042A 26132.84332200 .00001096 00000-0 17720-3 0 9991 2 27939 98.3476 316.2061 0011907 26.8479 97.7232 14.73405051210342 CO-65 1 32785U 08021C 26132.84521333 .00002895 00000-0 18667-3 0 9994 2 32785 97.8259 113.5431 0010036 140.5484 219.6477 15.09105840979869 CO-66 1 32791U 08021J 26132.73647330 .00011772 00000-0 38923-3 0 9996 2 32791 97.7525 128.9791 0005011 84.8915 275.2897 15.31513020981861 RS-30 1 32953U 08025A 26132.76859314 -.00000021 00000-0 -22185-3 0 9990 2 32953 82.5071 17.4718 0020334 30.8376 329.3894 12.43177866815292 SRMSAT 1 37841U 11058D 26132.72776161 .00000364 00000-0 53462-4 0 9996 2 37841 19.9726 274.1025 0011686 173.6263 214.7014 14.11567690752801 ZACUBE-1 1 39417U 13066B 26132.87677755 .00003027 00000-0 23831-3 0 9998 2 39417 97.8118 95.0221 0041873 11.9961 348.2250 15.00908497675431 Delfi-N3xt 1 39428U 13066N 26132.56761800 .00004690 00000-0 41506-3 0 9997 2 39428 97.8341 52.9219 0074208 326.5023 33.1515 14.94669576669309 GOMX-1 1 39430U 13066Q 26132.84327161 .00001167 00000-0 18195-3 0 9993 2 39430 97.6515 335.5349 0128401 190.3885 169.4665 14.69316965664728 LO-74 1 39440U 13066AA 26132.82478453 .00001748 00000-0 16626-3 0 9995 2 39440 97.8889 81.6671 0058845 143.2528 217.2748 14.93491684671717 AO-73 1 39444U 13066AE 26132.85135747 .00005186 00000-0 32740-3 0 9993 2 39444 97.8258 103.5768 0035403 326.7913 33.1093 15.09021963674339 DTUSAT-2 1 40030U 14033W 26132.69869547 .00004235 00000-0 23366-3 0 9993 2 40030 98.0867 128.1882 0007943 10.0957 350.0431 15.14543025647319 LILACSAT-2 1 40908U 15049K 26132.84842664 .00011452 00000-0 20403-3 0 9991 2 40908 97.4698 168.3720 0007642 37.9831 322.1958 15.50253223590274 Horyu-4 1 41340U 16012D 26132.86732350 .00135031 00000-0 74881-3 0 9994 2 41340 30.9892 334.3982 0005461 23.8940 336.1970 15.78006687565204 Lapan A3 1 41603U 16040E 26132.87755955 .00002336 00000-0 75797-4 0 9993 2 41603 97.1488 130.1916 0011678 134.9230 225.2963 15.32878058549407 CAS-2T 1 41847U 16066G 26132.84649852 .00000517 00000-0 82640-4 0 9990 2 41847 98.3825 208.9827 0341066 236.6839 120.1265 14.44590786499696 TechnoSat 1 42829U 17042E 26132.80781515 .00001616 00000-0 11860-3 0 9991 2 42829 97.4234 291.8269 0017044 210.9026 149.1199 15.04729636481380 AO-91 1 43017U 17073E 26132.87740102 .00005964 00000-0 26261-3 0 9990 2 43017 97.4761 0.8269 0154160 90.5575 271.3322 15.12053585460054 S-Net D 1 43186U 18014G 26132.83073779 .00003083 00000-0 16237-3 0 9990 2 43186 97.5392 37.8471 0009546 132.4833 227.7208 15.16328992453407 S-Net B 1 43187U 18014H 26132.44554844 .00002851 00000-0 15056-3 0 9995 2 43187 97.5395 37.4497 0010222 130.2698 229.9430 15.16297031453346 S-Net A 1 43188U 18014J 26132.63182090 .00003060 00000-0 16116-3 0 9998 2 43188 97.5407 37.8369 0010135 130.2010 230.0112 15.16334618453370 S-Net C 1 43189U 18014K 26132.64720905 .00002846 00000-0 15024-3 0 9991 2 43189 97.5424 37.9215 0011634 124.6766 235.5565 15.16289305451924 Ten-Koh 1 43677U 18084G 26132.50263007 .00000685 00000-0 56191-4 0 9990 2 43677 98.0767 323.3683 0008170 233.1390 126.9085 15.02776129410805 PO-101 1 43678U 18084H 26132.82319192 .00002040 00000-0 16795-3 0 9995 2 43678 98.1105 327.5164 0011981 293.3865 66.6097 15.00273601410912 QO-100 1 43700U 18090A 26132.82680315 .00000157 00000-0 00000 0 0 9991 2 43700 0.0151 269.4351 0001589 176.4940 108.1580 1.00274257 27322 MinXSS-2 1 43758U 18099A 26132.61413968 .00021842 00000-0 47122-3 0 9992 2 43758 97.4548 207.9228 0007501 45.1490 315.0367 15.44547965408638 AO-95 1 43770U 18099N 26132.60956847 .00006857 00000-0 26976-3 0 9996 2 43770 97.4410 193.0052 0010442 112.2597 247.9749 15.25919266407791 SNUSat 2 1 43782U 18099AA 26132.09686235 .00005401 00000-0 24431-3 0 9991 2 43782 97.4090 186.0460 0011727 68.0647 292.1834 15.21272005407543 SnugLite 1 43784U 18099AC 26132.62071968 .00007368 00000-0 28599-3 0 9996 2 43784 97.3901 187.2682 0004210 73.5700 286.6001 15.26381155407898 ITASat 1 1 43786U 18099AE 26132.84008111 .00004385 00000-0 21479-3 0 9998 2 43786 97.4059 185.0649 0014350 114.2839 245.9896 15.18584788407546 EAGLET 1 1 43790U 18099AJ 26132.86372633 .00002468 00000-0 14451-3 0 9990 2 43790 97.4262 183.4704 0012872 106.5888 253.6758 15.12660067406996 ESEO 1 43792U 18099AL 26132.85664436 .00001670 00000-0 12442-3 0 9998 2 43792 97.3997 171.7548 0013364 94.1818 266.0936 15.04132497406493 JO-97 1 43803U 18099AX 26132.13071089 .00010652 00000-0 34172-3 0 9992 2 43803 97.4155 194.8693 0006475 53.2825 306.9011 15.32491171408105 Suomi 100 1 43804U 18099AY 26132.12213074 .00007378 00000-0 27594-3 0 9995 2 43804 97.4213 192.6691 0011087 55.6236 304.6050 15.27569361407919 ISAT 1 43879U 18111D 26132.80288397 .00049483 00000-0 62175-3 0 9994 2 43879 97.5896 65.4749 0008255 83.2112 277.0082 15.59513333405642 UWE-4 1 43880U 18111E 26132.78645854 .00020694 00000-0 45571-3 0 9992 2 43880 97.5855 59.6106 0010677 92.8660 267.3810 15.43921940405311 Sparrow 1 43881U 18111F 26132.81207824 .00070946 00000-0 69746-3 0 9993 2 43881 97.6126 70.5623 0007698 107.6561 252.5539 15.65762788405821 Prox-1 1 44339U 19036A 26132.76809538 .00008474 00000-0 83372-3 0 9991 2 44339 23.9966 350.6830 0006508 344.4197 15.6102 14.89758912368181 Taurus 1 1 44530U 19059C 26132.82512090 .00005309 00000-0 85938-3 0 9994 2 44530 98.6391 295.4769 0009463 68.8995 291.3221 14.71707839353449 TO-108 1 44881U 19093C 26132.83945314 .00000918 00000-0 10984-3 0 9991 2 44881 97.7537 205.9326 0012924 197.1661 162.9119 14.86461746346167 RS-44 1 44909U 19096E 26132.35437443 .00000005 00000-0 -21562-4 0 9994 2 44909 82.5241 3.5197 0216637 227.9977 130.2500 12.79748064297763 SALSAT 1 46495U 20068K 26132.49064809 .00005145 00000-0 18390-3 0 9997 2 46495 97.8859 133.3988 0011544 72.3805 287.8693 15.29261249309906 CSS (TIANHE-1) 1 48274U 21035A 26132.51920400 .00012182 00000-0 13837-3 0 9990 2 48274 41.4671 178.9319 0004229 292.2546 67.7845 15.62150141287599 CUTE 1 49263U 21088D 26132.77986990 .00133390 00000-0 76236-3 0 9998 2 49263 97.4190 229.0724 0001596 275.6751 84.4333 15.78491621256941 TeikyoSat 4 1 49396U 21102B 26132.32313559 .00001019 00000-0 67519-4 0 9995 2 49396 97.3699 163.1995 0013541 60.9839 299.2745 15.09376462247317 Z-Sat 1 49399U 21102E 26132.86861856 .00000608 00000-0 33054-4 0 9995 2 49399 97.3362 169.2661 0017090 17.1090 343.0717 15.17985294248080 KOSEN 1 1 49402U 21102H 26132.35205808 .00004450 00000-0 17377-3 0 9991 2 49402 97.3221 175.2138 0012843 341.4949 18.5820 15.26331816248558 HO-113 1 50466U 21131B 26132.85862650 .00000271 00000-0 97272-4 0 9994 2 50466 98.4954 225.4431 0003804 186.9938 173.1198 14.41322463230029 SNUGLITE 2 1 52899U 22065F 26132.63497799 .00000603 00000-0 12346-3 0 9994 2 52899 98.2154 277.5396 0008531 130.0913 230.1038 14.64278546205794 UmKA 1 (RS40S) 1 57172U 23091G 26132.82201735 .00003674 00000-0 17157-3 0 9993 2 57172 97.5075 191.6622 0011538 238.5686 121.4421 15.20402380158633 CubeBel-2 (EU11S) 1 57175U 23091K 26132.83691801 .00007422 00000-0 27167-3 0 9991 2 57175 97.5074 195.7588 0008931 232.9162 127.1262 15.28306554158901 RS-38S 1 57189U 23091Z 26132.82485529 .00010432 00000-0 31054-3 0 9998 2 57189 97.5111 201.6314 0007644 185.3904 174.7258 15.34876895159267 SONATE-2 1 59112U 24043Q 26132.86300328 .00024600 00000-0 35218-3 0 9999 2 59112 97.5494 281.1759 0005910 332.4957 27.5983 15.56174623122390 GRBBeta 1 60237U 24128C 26132.84220270 .00002653 00000-0 19015-3 0 9999 2 60237 61.9907 340.2469 0045321 127.3754 233.1479 15.06340987100940 Curium One 1 60242U 24128H 26132.86023471 .00005466 00000-0 32278-3 0 9992 2 60242 61.9795 330.8415 0044911 123.6706 236.8685 15.11928025101117 ROBUSTA-3A 1 60243U 24128J 26132.87177440 .00005088 00000-0 30795-3 0 9992 2 60243 61.9871 333.0785 0046054 121.2092 239.3529 15.11106531101081 CatSat 1 60246U 24125J 26132.84660279 .00031128 00000-0 46273-3 0 9998 2 60246 97.2131 344.9922 0021448 314.4742 45.4758 15.54842708101896 HYPERVIEW-1G (RS66S) 1 61772U 24199AP 26132.84856473 .00065959 00000-0 59506-3 0 9999 2 61772 97.2954 11.0046 0007445 64.0562 296.1465 15.67922559129125 AO-123 1 61781U 24199AY 26132.84177830 .00005225 00000-0 15495-3 0 9991 2 61781 97.3053 1.8371 0015862 77.8992 282.4028 15.35143592128506 JINJUSat 1B 1 63210U 25052A 26132.50415659 .00009498 00000-0 30626-3 0 9995 2 63210 97.4048 29.2367 0002911 172.5415 187.5871 15.32374819 64632 NUSHSAT 1 1 63211U 25052B 26132.27571361 .00011656 00000-0 35037-3 0 9993 2 63211 97.4024 29.4585 0002553 170.8279 189.3011 15.34556876 64635 TEVEL2-4 1 63213U 25052D 26132.23815029 .00010696 00000-0 33432-3 0 9993 2 63213 97.3945 28.5995 0001523 175.5328 184.5928 15.33338445 64606 TEVEL2-5 1 63214U 25052E 26132.64643235 .00011027 00000-0 34617-3 0 9992 2 63214 97.3947 28.9655 0001549 173.4272 186.6991 15.33191488 64662 TEVEL2-6 1 63215U 25052F 26132.46209847 .00010871 00000-0 34176-3 0 9996 2 63215 97.3947 28.7660 0001596 179.6392 180.4852 15.33149501 64634 TEVEL2-1 1 63217U 25052H 26132.21813956 .00010086 00000-0 32224-3 0 9993 2 63217 97.3919 28.1875 0000996 201.3370 158.7831 15.32655705 64585 TEVEL2-3 1 63218U 25052J 26132.67098569 .00010736 00000-0 34220-3 0 9999 2 63218 97.3924 28.6574 0001026 198.7744 161.3460 15.32713262 64651 TEVEL2-2 1 63219U 25052K 26132.41448572 .00010162 00000-0 32453-3 0 9994 2 63219 97.3921 28.3853 0001022 202.9376 157.1820 15.32665711 64615 TEVEL2-9 1 63237U 25052AD 26132.21621942 .00009160 00000-0 31033-3 0 9995 2 63237 97.3983 27.6373 0004029 268.4577 91.6202 15.30786209 64522 TEVEL2-7 1 63238U 25052AE 26132.83899274 .00009920 00000-0 33849-3 0 9990 2 63238 97.3986 28.1884 0004118 265.3252 94.7518 15.30531480 64617 TEVEL2-8 1 63239U 25052AF 26132.65071331 .00009888 00000-0 33762-3 0 9994 2 63239 97.3985 27.9788 0004117 267.5411 92.5359 15.30509613 64585 HYDRA-W 1 63490U 25052BL 26113.93882235 .05662091 24406-5 29537-2 0 9997 2 63490 97.3690 18.2798 0008685 203.5899 156.4993 16.20186780 62336 HADES-ICM (SO-125) 1 63492U 25052BN 26132.47089678 .00683974 19664-3 18689-2 0 9991 2 63492 97.3771 36.5368 0009249 170.5020 189.6432 15.94023464 65158 SPIRONE 1 66657U 25274H 26132.54406606 .00001561 00000-0 15383-3 0 9991 2 66657 97.7479 62.3506 0013366 128.1864 232.0562 14.93394596 24904 K-HERO 1 66660U 25274L 26132.29077860 .00001466 00000-0 14327-3 0 9994 2 66660 97.7486 62.2355 0015129 133.5107 226.7373 14.93821523 24877 SNUGLITE-III DURI 1 66661U 25274M 26132.54763218 .00001328 00000-0 13005-3 0 9991 2 66661 97.7482 62.5080 0015750 134.0230 226.2291 14.93874970 24918 SilverSat 1 66909U 98067XV 26113.44966717 .07226154 12288-4 11979-2 0 9998 2 66909 51.6027 190.0749 0007952 333.4666 26.5949 16.32457272 22308 SAKHACUBE-CHOLBON 1 67290U 25313AU 26132.65127146 .00005741 00000-0 23803-3 0 9990 2 67290 97.3943 208.1476 0010917 118.9289 241.3045 15.24216931 20561 RS95S (QMR-KWT-2) 1 67291U 25313AV 26132.66864343 .00008562 00000-0 34197-3 0 9991 2 67291 97.3940 208.2741 0010619 118.6090 241.6217 15.25332777 20574 Ten-Koh2 1 68261U 25241B 26132.40079398 .00004378 00000-0 19513-3 0 9995 2 68261 51.6535 129.8939 0006249 32.2397 327.8962 15.23423911 9454 JACK-002 1 68417U 26067B 26132.85611962 .00004158 00000-0 20228-3 0 9994 2 68417 97.4542 91.9017 0003757 66.9946 293.1684 15.18940797 6581 DISCO 2 1 68431U 26067R 26132.86870627 .00004533 00000-0 22272-3 0 9994 2 68431 97.4579 91.9063 0004274 105.3262 254.8445 15.18542849 6587 HADES-SA (SpinnyONE) 1 68446U 26067AG 26132.83338234 .00011232 00000-0 55731-3 0 9990 2 68446 97.4387 91.6988 0006910 177.1746 182.9529 15.17853429 6566 PARUS-6U1 1 68456U 26067AS 26132.84035002 .00003740 00000-0 19184-3 0 9996 2 68456 97.4527 91.7639 0005840 167.0327 193.1058 15.17137677 6573 SAL-E 1 68458U 26067AU 26132.83969679 .00005020 00000-0 25555-3 0 9995 2 68458 97.4455 91.7250 0005773 175.6221 184.5064 15.17242996 6579 FSI-SAT 2 1 68792U 26088A 26132.35615044 .00003140 00000-0 21614-3 0 9993 2 68792 97.5025 282.5333 0013622 225.9041 134.1066 15.06533475 2894 OrigamiSat 2 1 68795U 26088D 26132.86824929 .00001837 00000-0 12318-3 0 9998 2 68795 97.5031 283.0789 0015404 195.7398 164.3354 15.07994965 2974 ARICA 2 1 68796U 26088E 26132.86681919 .00002508 00000-0 16614-3 0 9998 2 68796 97.5016 283.0755 0015480 194.0835 165.9964 15.08122619 2977 WASEDA-SAT-ZERO-II 1 68797U 26088F 26132.86603749 .00003586 00000-0 23518-3 0 9992 2 68797 97.5015 283.0764 0015463 193.8266 166.2541 15.08213525 2975 MANGARO-II-Piscus 1 68798U 26088G 26132.39735774 .00002095 00000-0 13787-3 0 9996 2 68798 97.5022 282.6310 0018719 199.5324 160.5190 15.08504768 2903 IO-86 1 40931U 25360.30710720 .00000000 00000-0 12800-3 0 00 2 40931 6.0006 332.5373 0012733 338.8432 8.1437 14.79075515 01 LILIUM-4 1 71922C 26067AC 26089.50133053 -.00014632 00000 0 -74472-3 0 04 2 71922 97.4497 49.1617 0004341 5.9603 355.7042 15.16896692 16